Tracking 19562 objects as of 24-Mar-2019
HD Live streaming from Space Station
objects crossing your sky now

OPS 9438 (DSCS 2-8)

Track OPS 9438 (DSCS 2-8) now!
OPS 9438 (DSCS 2-8) is classified as:


NORAD ID: 10001
Int'l Code: 1977-034B
Perigee: 37,059.3 km
Apogee: 37,358.7 km
Inclination: 14.5 °
Period: 1,509.0 minutes
Semi major axis: 43579 km
RCS: 6.1664 m2 (large)
Launch date: May 12, 1977
Source: United States (US)
Launch site: AIR FORCE EASTERN TEST RANGE (AFETR)
aabbcc
Your satellite tracking list
Your tracking list is empty




NASA's NSSDC Master Catalog

Two Line Element Set (TLE):
1 10001U 77034B   19080.87144897 -.00000152 +00000-0 +00000-0 0  9998
2 10001 014.5448 324.6772 0034343 080.4030 095.6273 00.95427222092290
Source of the keplerian elements: AFSPC